2023/01/28 00:00:00,65.1,-4.6
2023/01/28 00:10:00,65.0,-4.6
2023/01/28 00:20:00,65.0,-4.9
2023/01/28 00:30:00,64.9,-4.8
2023/01/28 00:40:00,64.9,-4.9
2023/01/28 00:50:00,64.8,-4.7
2023/01/28 01:00:00,64.8,-4.9
2023/01/28 01:10:00,64.7,-5.2
2023/01/28 01:20:00,64.6,-4.7
2023/01/28 01:30:00,64.5,-4.8
2023/01/28 01:40:00,64.5,-4.7
2023/01/28 01:50:00,64.3,-4.8
2023/01/28 02:00:00,64.6,-4.8
2023/01/28 02:10:00,65.3,-4.7
2023/01/28 02:20:00,65.9,-4.7
2023/01/28 02:30:00,66.4,-4.8
2023/01/28 02:40:00,67.6,-4.5
2023/01/28 02:50:00,68.2,-4.9
2023/01/28 03:00:00,68.1,-4.5
2023/01/28 03:10:00,68.5,-4.8
2023/01/28 03:20:00,68.8,-4.8
2023/01/28 03:30:00,69.0,-5.0
2023/01/28 03:40:00,69.1,-4.7
2023/01/28 03:50:00,69.2,-4.8
2023/01/28 04:00:00,69.6,-4.7
2023/01/28 04:10:00,70.2,-4.7
2023/01/28 04:20:00,70.6,-5.0
2023/01/28 04:30:00,71.0,-5.0
2023/01/28 04:40:00,71.7,-4.8
2023/01/28 04:50:00,72.0,-4.8
2023/01/28 05:00:00,72.9,-4.8
2023/01/28 05:10:00,73.2,-4.8
2023/01/28 05:20:00,73.0,-4.8
2023/01/28 05:30:00,72.9,-4.8
2023/01/28 05:40:00,73.5,-4.8
2023/01/28 05:50:00,73.7,-4.7
2023/01/28 06:00:00,73.5,-4.9
2023/01/28 06:10:00,73.4,-4.8
2023/01/28 06:20:00,73.3,-5.3
2023/01/28 06:30:00,73.4,-4.8
2023/01/28 06:40:00,73.3,-4.8
2023/01/28 06:50:00,73.1,-4.7
2023/01/28 07:00:00,73.2,-4.7
2023/01/28 07:10:00,73.4,-4.6
2023/01/28 07:20:00,73.3,-4.5
2023/01/28 07:30:00,73.7,-4.4
2023/01/28 07:40:00,74.4,-4.4
2023/01/28 07:50:00,74.6,-4.3
2023/01/28 08:00:00,75.1,-4.2
2023/01/28 08:10:00,75.4,-4.3
2023/01/28 08:20:00,75.3,-4.1
2023/01/28 08:30:00,75.3,-3.9
2023/01/28 08:40:00,75.3,-3.6
2023/01/28 08:50:00,75.3,-3.0
2023/01/28 09:00:00,75.3,-3.4
2023/01/28 09:10:00,75.5,-3.6
2023/01/28 09:20:00,75.4,-3.7
2023/01/28 09:30:00,75.5,-3.4
2023/01/28 09:40:00,75.8,-3.7
2023/01/28 09:50:00,76.4,-3.6
2023/01/28 10:00:00,76.5,-3.1
2023/01/28 10:10:00,76.5,-3.2
2023/01/28 10:20:00,76.5,-3.4
2023/01/28 10:30:00,76.9,-3.3
2023/01/28 10:40:00,77.7,-3.6
2023/01/28 10:50:00,78.4,-3.5
2023/01/28 11:00:00,78.4,-2.9
2023/01/28 11:10:00,78.4,-3.2
2023/01/28 11:20:00,79.1,-2.8
2023/01/28 11:30:00,79.5,-3.1
2023/01/28 11:40:00,79.9,-2.9
2023/01/28 11:50:00,80.3,-2.7
2023/01/28 12:00:00,80.6,-3.0
2023/01/28 12:10:00,80.4,-3.0
2023/01/28 12:20:00,80.0,-2.7
2023/01/28 12:30:00,79.8,-3.1
2023/01/28 12:40:00,79.8,-3.2
2023/01/28 12:50:00,80.0,-2.9
2023/01/28 13:00:00,81.3,-3.3
2023/01/28 13:10:00,83.5,-3.2
2023/01/28 13:20:00,85.1,-3.3
2023/01/28 13:30:00,85.4,-3.3
2023/01/28 13:40:00,84.3,-3.5
2023/01/28 13:50:00,82.5,-3.6
2023/01/28 14:00:00,81.1,-3.6
2023/01/28 14:10:00,79.9,-3.7
2023/01/28 14:20:00,78.3,-3.9
2023/01/28 14:30:00,76.5,-3.4
2023/01/28 14:40:00,75.6,-3.1
2023/01/28 14:50:00,75.7,-3.7
2023/01/28 15:00:00,75.6,-3.8
2023/01/28 15:10:00,75.3,-3.9
2023/01/28 15:20:00,75.2,-4.0
2023/01/28 15:30:00,75.1,-4.1
2023/01/28 15:40:00,74.9,-4.2
2023/01/28 15:50:00,74.0,-4.5
2023/01/28 16:00:00,73.6,-4.4
2023/01/28 16:10:00,74.5,-4.5
2023/01/28 16:20:00,74.6,-4.6
2023/01/28 16:30:00,74.6,-4.4
2023/01/28 16:40:00,74.3,-4.9
2023/01/28 16:50:00,73.8,-5.1
2023/01/28 17:00:00,73.4,-5.2
2023/01/28 17:10:00,73.3,-5.3
2023/01/28 17:20:00,73.4,-5.1
2023/01/28 17:30:00,73.4,-5.3
2023/01/28 17:40:00,73.3,-5.3
2023/01/28 17:50:00,73.2,-5.3
2023/01/28 18:00:00,72.9,-5.3
2023/01/28 18:10:00,72.7,-5.3
2023/01/28 18:20:00,72.6,-5.2
2023/01/28 18:30:00,72.6,-5.6
2023/01/28 18:40:00,72.6,-5.6
2023/01/28 18:50:00,72.6,-5.6
2023/01/28 19:00:00,72.6,-5.9
2023/01/28 19:10:00,72.7,-5.7
2023/01/28 19:20:00,72.6,-5.6
2023/01/28 19:30:00,72.5,-5.8
2023/01/28 19:40:00,72.4,-5.6
2023/01/28 19:50:00,72.3,-5.7
2023/01/28 20:00:00,72.1,-5.6
2023/01/28 20:10:00,72.1,-5.5
2023/01/28 20:20:00,72.0,-5.3
2023/01/28 20:30:00,71.9,-5.3
2023/01/28 20:40:00,71.9,-5.4
2023/01/28 20:50:00,71.9,-5.4
2023/01/28 21:00:00,71.8,-5.4
2023/01/28 21:10:00,71.8,-5.4
2023/01/28 21:20:00,71.7,-5.6
2023/01/28 21:30:00,71.7,-5.7
2023/01/28 21:40:00,71.7,-5.6
2023/01/28 21:50:00,71.7,-5.9
2023/01/28 22:00:00,71.7,-5.6
2023/01/28 22:10:00,71.6,-5.8
2023/01/28 22:20:00,71.7,-5.5
2023/01/28 22:30:00,71.8,-5.3
2023/01/28 22:40:00,71.8,-5.4
2023/01/28 22:50:00,71.9,-5.5
2023/01/28 23:00:00,71.9,-5.3
2023/01/28 23:10:00,71.8,-5.4
2023/01/28 23:20:00,71.7,-5.3
2023/01/28 23:30:00,71.6,-5.4
2023/01/28 23:40:00,71.6,-6.0
2023/01/28 23:50:00,71.6,-5.2
